| time (UTC) | temp F | wind direction | speed MPH | gust MPH | rain 1hr in | rain 24hr in | rain mn in | humidity % | barometer mb |
| 20260504081010 | 63 | 120 | 3.0 | 7.0 | 0.00 | 0.02 | 0.00 | 77 | 1013.4 |
| 20260504045012 | 56 | 339 | 2.0 | 4.0 | 0.00 | 0.02 | 0.00 | 85 | 1013.3 |
| 20260504044012 | 56 | 338 | 2.0 | 4.0 | 0.00 | 0.02 | 0.00 | 85 | 1013.4 |
| 20260504043011 | 56 | 338 | 2.0 | 3.0 | 0.00 | 0.02 | 0.00 | 85 | 1013.6 |
| 20260504041011 | 57 | 338 | 1.0 | 2.0 | 0.00 | 0.02 | 0.00 | 85 | 1013.5 |
| 20260504040016 | 57 | 338 | 0.0 | 2.0 | 0.00 | 0.02 | 0.00 | 85 | 1013.5 |
| 20260504035012 | 57 | 338 | 1.0 | 3.0 | 0.00 | 0.02 | 0.00 | 85 | 1013.8 |
| 20260504034010 | 57 | 338 | 1.0 | 3.0 | 0.00 | 0.02 | 0.00 | 85 | 1013.8 |
| 20260504032012 | 56 | 338 | 2.0 | 4.0 | 0.00 | 0.02 | 0.00 | 85 | 1014.0 |
| 20260504031011 | 56 | 338 | 2.0 | 4.0 | 0.00 | 0.02 | 0.00 | 85 | 1014.1 |
| 20260504030011 | 56 | 338 | 2.0 | 4.0 | 0.00 | 0.02 | 0.00 | 85 | 1013.9 |
| 20260504025015 | 56 | 338 | 2.0 | 5.0 | 0.00 | 0.02 | 0.00 | 85 | 1014.0 |
| 20260504024010 | 56 | 339 | 2.0 | 5.0 | 0.00 | 0.02 | 0.00 | 85 | 1014.0 |
| 20260504023010 | 56 | 337 | 3.0 | 5.0 | 0.00 | 0.02 | 0.00 | 85 | 1013.9 |
| 20260504022011 | 56 | 334 | 4.0 | 7.0 | 0.00 | 0.02 | 0.00 | 85 | 1013.9 |
| 20260504021011 | 56 | 354 | 2.0 | 5.0 | 0.00 | 0.02 | 0.00 | 85 | 1013.9 |
| 20260504020013 | 56 | 355 | 2.0 | 4.0 | 0.00 | 0.02 | 0.00 | 84 | 1013.8 |
| 20260504015011 | 56 | 356 | 2.0 | 4.0 | 0.00 | 0.02 | 0.00 | 84 | 1013.8 |
| 20260504013011 | 56 | 356 | 2.0 | 3.0 | 0.00 | 0.02 | 0.00 | 85 | 1014.1 |
| 20260504012014 | 56 | 355 | 2.0 | 3.0 | 0.00 | 0.02 | 0.00 | 84 | 1014.4 |
| 20260504010012 | 56 | 355 | 2.0 | 3.0 | 0.00 | 0.02 | 0.00 | 84 | 1014.4 |
| 20260504005012 | 56 | 356 | 2.0 | 3.0 | 0.00 | 0.02 | 0.00 | 84 | 1014.4 |
| 20260504004011 | 56 | 354 | 3.0 | 4.0 | 0.00 | 0.02 | 0.00 | 84 | 1014.5 |
| 20260504003012 | 56 | 324 | 2.0 | 4.0 | 0.00 | 0.02 | 0.00 | 84 | 1014.7 |
| 20260504001011 | 56 | 30 | 3.0 | 4.0 | 0.00 | 0.02 | 0.00 | 83 | 1014.7 |
| 20260504000013 | 56 | 30 | 3.0 | 4.0 | 0.00 | 0.02 | 0.00 | 82 | 1014.6 |
| 20260503235013 | 57 | 31 | 2.0 | 4.0 | 0.00 | 0.02 | 0.02 | 82 | 1014.8 |
| 20260503234011 | 58 | 31 | 1.0 | 3.0 | 0.00 | 0.02 | 0.02 | 82 | 1014.7 |
| 20260503233011 | 58 | 30 | 2.0 | 4.0 | 0.00 | 0.02 | 0.02 | 82 | 1014.6 |
| 20260503230013 | 57 | 356 | 2.0 | 4.0 | 0.00 | 0.02 | 0.02 | 81 | 1015.0 |
| 20260503225010 | 57 | 44 | 2.0 | 4.0 | 0.00 | 0.02 | 0.02 | 81 | 1014.9 |
| 20260503224011 | 58 | 43 | 1.0 | 3.0 | 0.00 | 0.02 | 0.02 | 80 | 1014.9 |
| 20260503223011 | 58 | 44 | 0.0 | 2.0 | 0.00 | 0.02 | 0.02 | 80 | 1015.0 |
| 20260503222010 | 58 | 36 | 2.0 | 4.0 | 0.00 | 0.02 | 0.02 | 80 | 1015.1 |
| 20260503221011 | 58 | 38 | 2.0 | 5.0 | 0.00 | 0.02 | 0.02 | 80 | 1014.9 |
| 20260503220012 | 58 | 44 | 2.0 | 5.0 | 0.00 | 0.02 | 0.02 | 80 | 1015.0 |
| 20260503215011 | 58 | 26 | 1.0 | 3.0 | 0.00 | 0.02 | 0.02 | 79 | 1014.8 |
| 20260503214011 | 58 | 27 | 0.0 | 2.0 | 0.00 | 0.02 | 0.02 | 79 | 1014.7 |
| 20260503213016 | 58 | 27 | 2.0 | 3.0 | 0.00 | 0.02 | 0.02 | 79 | 1014.7 |
| 20260503212012 | 58 | 18 | 2.0 | 5.0 | 0.00 | 0.02 | 0.02 | 79 | 1014.7 |
| 20260503211010 | 58 | 8 | 2.0 | 4.0 | 0.00 | 0.02 | 0.02 | 78 | 1014.7 |
| 20260503210012 | 58 | 9 | 1.0 | 3.0 | 0.00 | 0.02 | 0.02 | 78 | 1014.9 |
| 20260503204011 | 58 | 37 | 3.0 | 7.0 | 0.00 | 0.02 | 0.02 | 78 | 1014.8 |
| 20260503203011 | 58 | 35 | 3.0 | 5.0 | 0.00 | 0.02 | 0.02 | 77 | 1015.0 |
| 20260503202012 | 58 | 52 | 2.0 | 5.0 | 0.00 | 0.02 | 0.02 | 77 | 1015.1 |
| 20260503201010 | 58 | 57 | 2.0 | 5.0 | 0.00 | 0.02 | 0.02 | 77 | 1015.1 |
| 20260503200012 | 58 | 59 | 3.0 | 5.0 | 0.00 | 0.02 | 0.02 | 77 | 1015.2 |
| 20260503195010 | 59 | 66 | 0.0 | 4.0 | 0.00 | 0.02 | 0.02 | 77 | 1015.2 |
| 20260503193012 | 59 | 72 | 3.0 | 5.0 | 0.00 | 0.02 | 0.02 | 77 | 1014.8 |
| 20260503192013 | 59 | 110 | 2.0 | 4.0 | 0.00 | 0.02 | 0.02 | 76 | 1014.9 |
| 20260503191012 | 59 | 137 | 1.0 | 3.0 | 0.00 | 0.02 | 0.02 | 77 | 1015.0 |
| 20260503190015 | 59 | 137 | 2.0 | 4.0 | 0.00 | 0.02 | 0.02 | 76 | 1014.8 |
| 20260503185015 | 59 | 137 | 2.0 | 3.0 | 0.00 | 0.02 | 0.02 | 76 | 1014.8 |
| 20260503184012 | 59 | 138 | 2.0 | 3.0 | 0.00 | 0.02 | 0.02 | 77 | 1014.9 |
| 20260503183012 | 58 | 138 | 2.0 | 6.0 | 0.00 | 0.02 | 0.02 | 77 | 1014.9 |
| 20260503182012 | 59 | 126 | 3.0 | 6.0 | 0.00 | 0.02 | 0.02 | 79 | 1014.8 |
| 20260503181014 | 59 | 134 | 4.0 | 10.0 | 0.00 | 0.02 | 0.02 | 81 | 1015.0 |
| 20260503180014 | 59 | 142 | 4.0 | 9.0 | 0.00 | 0.02 | 0.02 | 82 | 1014.9 |
| 20260503175011 | 59 | 141 | 6.0 | 10.0 | 0.00 | 0.02 | 0.02 | 82 | 1014.9 |
| 20260503174013 | 59 | 132 | 5.0 | 11.0 | 0.00 | 0.02 | 0.02 | 82 | 1014.8 |
| 20260503172014 | 60 | 137 | 4.0 | 9.0 | 0.00 | 0.02 | 0.02 | 81 | 1014.7 |
| 20260503171013 | 60 | 150 | 6.0 | 12.0 | 0.00 | 0.02 | 0.02 | 81 | 1014.9 |
| 20260503151009 | 62 | 147 | 7.0 | 15.0 | 0.00 | 0.02 | 0.02 | 77 | 1014.4 |
| 20260503131010 | 62 | 115 | 4.0 | 8.0 | 0.00 | 0.02 | 0.02 | 78 | 1015.8 |